Regional Weather Roundup
Issued by NWS Mt. Holly, NJ

Home | Current Version | Previous Version | Text Only | Print | Product List | Glossary On
Versions: 1 2 3 4 5 6 7 8 9 10 11 12 13 14 15 16 17 18 19 20 21 22 23 24 25 26 27 28 29 30 31 32 33 34 35 36 37 38 39 40 41 42 43 44 45 46 47 48 49 50
000
ASUS41 KPHI 280210
RWRPHI

REGIONAL WEATHER ROUNDUP
NATIONAL WEATHER SERVICE MOUNT HOLLY NJ
900 PM EST TUE JAN 27 2015

NOTE:  "FAIR" INDICATES FEW OR NO CLOUDS BELOW 12,000 FEET WITH NO
SIGNIFICANT WEATHER AND/OR OBSTRUCTIONS TO VISIBILITY.

 * = STATION DOES NOT REPORT PRECIPITATION (E.G. RAIN, SNOW, ETC.)
        OR FOG.

NJZ015>026-280300-
SOUTHERN NEW JERSEY

CITY           SKY/WX    TMP DP  RH WIND       PRES   REMARKS
POMONA         PTCLDY    26  12  55 NW10      29.80R WCI  16
RIO GRANDE*    PTCLDY    32  12  43 NW9G21    29.80R WCI  24
MILLVILLE      PTCLDY    30   9  41 NW10      29.81R WCI  21
WRIGHTSTOWN    MOCLDY    25  10  52 NW18      29.78R WCI  11
MOUNT HOLLY    PTCLDY    25   9  50 NW13G22   29.83R WCI  14
TRENTON        MOCLDY    24   8  50 NW7G22    29.81R WCI  16

$$
NJZ001>014-280300-
NORTHERN NEW JERSEY

CITY           SKY/WX    TMP DP  RH WIND       PRES   REMARKS
SUSSEX         CLOUDY    18   2  49 NW8G17    29.80R WCI   8
ANDOVER*         N/A     17   3  54 N9G21     29.81R WCI   6
MORRISTOWN     CLOUDY    21   7  53 N15G32    29.81R WCI   8
NEWARK         CLOUDY    23  10  57 N16G28    29.80R WCI  10
TETERBORO      CLOUDY    22   9  57 NW14G23   29.78R WCI   9
CALDWELL       CLOUDY    21   6  52 NW9       29.80R WCI  11
SOMERVILLE     CLOUDY    22   6  50 N15G25    29.81R WCI   9
ALLAIRE*       CLOUDY    25   9  50 NW16      29.77R WCI  12
TOMS RIVER*    MOCLDY    25  12  58 NW14G20   29.79R WCI  13

$$
PAZ043-044-047-054-055-060>062-066>071-280300-
EASTERN PENNSYLVANIA

CITY           SKY/WX    TMP DP  RH WIND       PRES   REMARKS
PHILADELPHIA   MOCLDY    28   8  43 N10       29.84R WCI  19
NORTH PHILA    MOCLDY    26   6  42 NW18G24   29.85R WCI  13
BLUE BELL      MOCLDY    27   9  46 N5        29.83R WCI  21
DOYLESTOWN     MOCLDY    19   6  57 NW13G25   29.82R WCI   6
POTTSTOWN      MOCLDY    22   4  46 N17G28    29.86R WCI   8
LANCASTER      PTCLDY    24   3  40 NW18G26   29.87R WCI  10
COATESVILLE    PTCLDY    25   7  46 NW21G28   29.83R WCI  10
READING        PTCLDY    22   5  48 N16G24    29.87R WCI   8
ALLENTOWN      CLOUDY    18   5  57 N17G26    29.87R WCI   3
MOUNT POCONO   MIX PCPN  10   3  73 NW23G31   29.71R WCI -10
HAZLETON       CLOUDY    12   5  73 MISG      29.84R
WILKES BARRE   CLOUDY    15   5  64 N12G20    29.88R WCI   2

$$
DEZALL-MDZ008-012-015-019-020-280300-
DELAWARE AND EASTERN MARYLAND

CITY           SKY/WX    TMP DP  RH WIND       PRES   REMARKS
WILMINGTON     PTCLDY    29   7  39 NW17G25   29.85R WCI  17
DOVER          CLEAR     30  19  64 NW14      29.84R WCI  19
GEORGETOWN     CLEAR     31  18  58 NW7G17    29.84R WCI  24
EASTON         CLEAR     32  23  69 NW15      29.90R WCI  22
PATUXENT       PTCLDY    32  20  61 NW25G33   29.88R WCI  19
OCEAN CITY     CLEAR     31  19  61 NW10      29.83R WCI  22
WALLOPS ISLAND CLEAR     31  23  72 NW10G21   29.85R WCI  22
CAMBRIDGE      CLEAR     34  23  64 NW14G22   29.87R WCI  24
SALISBURY      CLEAR     33  22  63 NW14      29.85R WCI  23

$$
PAZ001-021-NYZ056-072-MDZ011-DCZ001-280300-
OTHER NEARBY LOCATIONS

CITY           SKY/WX    TMP DP  RH WIND       PRES   REMARKS
HARRISBURG     PTCLDY    26   3  37 N14G22    29.90R WCI  14
STATE COLLEGE  PTCLDY    19   5  53 N10       29.94R WCI   8
WILLIAMSPORT   PTCLDY    15   2  56 NW14G22   29.99R WCI   0
BINGHAMTON     PTCLDY     7  -3  64 N22G29    29.85R WCI -14
NEW YORK CITY  CLOUDY    24   9  52 NW12G20   29.79R WCI  13
BALTIMORE      PTCLDY    29  16  58 NW12      29.88R WCI  19
WASHINGTON DC  PTCLDY    32  17  54 NW16G28   29.92R WCI  21

$$


USA.gov is the U.S. government's official web portal to all federal, state and local government web resources and services.